WZZ3588 LHBP-EGKK

Flight info

Callsign WZZ3588
Flight time 2h 17m
Altitude 34000
Route BADOV DCT MAVOR DCT KATQA DCT RAPET DCT MASEK DCT TIVUN DCT BREDA DCT GALSO Q63 ARREK Y4 TEBRA
Aircraft A321/M-SDE3FGHIRWY/LB1

Departure

Time 2026-05-04 19:49
Airport Budapest Liszt Ferenc International Airport (LHBP)

Arrival

Time 2026-05-04 22:06
Airport London Gatwick Airport (EGKK)
Time Latitude Longitude Altitude Speed Heading
2026-05-04 19:16 47.43391 19.25798 456 ft 0 kts 222°
2026-05-04 19:32 47.43403 19.25814 457 ft 4 kts 220°
2026-05-04 19:32 47.43423 19.25840 455 ft 4 kts 220°
2026-05-04 19:33 47.43442 19.25867 455 ft 4 kts 239°
2026-05-04 19:33 47.43447 19.25891 457 ft 1 kts 311°
2026-05-04 19:33 47.43447 19.25892 457 ft 0 kts 312°
2026-05-04 19:42 47.43468 19.25859 457 ft 3 kts 314°
2026-05-04 19:42 47.43469 19.25857 457 ft 0 kts 315°
2026-05-04 19:43 47.43472 19.25853 457 ft 2 kts 311°
2026-05-04 19:43 47.43490 19.25806 457 ft 7 kts 302°
2026-05-04 19:43 47.43523 19.25747 455 ft 8 kts 313°
2026-05-04 19:43 47.43576 19.25715 457 ft 9 kts 13°
2026-05-04 19:44 47.43629 19.25770 456 ft 10 kts 43°
2026-05-04 19:44 47.43686 19.25846 457 ft 12 kts 41°
2026-05-04 19:44 47.43750 19.25930 456 ft 13 kts 42°
2026-05-04 19:44 47.43819 19.26025 457 ft 14 kts 42°
2026-05-04 19:45 47.43895 19.26127 456 ft 15 kts 42°
2026-05-04 19:45 47.43971 19.26228 458 ft 12 kts 42°
2026-05-04 19:45 47.43997 19.26264 460 ft 0 kts 42°
2026-05-04 19:46 47.44009 19.26280 460 ft 5 kts 43°
2026-05-04 19:47 47.44032 19.26313 462 ft 5 kts 46°
2026-05-04 19:47 47.44059 19.26378 467 ft 9 kts 67°
2026-05-04 19:47 47.44068 19.26467 471 ft 10 kts 92°
2026-05-04 19:47 47.44029 19.26589 468 ft 21 kts 131°
2026-05-04 19:48 47.43763 19.27019 474 ft 90 kts 133°
2026-05-04 19:48 47.43210 19.27909 462 ft 146 kts 132°
2026-05-04 19:48 47.42400 19.29201 486 ft 187 kts 132°
2026-05-04 19:48 47.41518 19.30617 1094 ft 186 kts 129°
2026-05-04 19:49 47.40866 19.32251 1739 ft 188 kts 111°
2026-05-04 19:49 47.40380 19.34085 2275 ft 197 kts 108°
2026-05-04 19:49 47.39842 19.36037 2531 ft 217 kts 114°
2026-05-04 19:49 47.39158 19.38141 2871 ft 235 kts 116°
2026-05-04 19:50 47.38619 19.40467 3377 ft 247 kts 91°
2026-05-04 19:50 47.39059 19.42882 3974 ft 256 kts 56°
2026-05-04 19:50 47.40222 19.45056 4334 ft 274 kts 48°
2026-05-04 19:50 47.41572 19.47051 4952 ft 280 kts 44°
2026-05-04 19:51 47.43031 19.49030 5658 ft 284 kts 43°
2026-05-04 19:51 47.44493 19.51002 6364 ft 286 kts 43°
2026-05-04 19:51 47.45936 19.52990 7057 ft 289 kts 44°
2026-05-04 19:51 47.47398 19.55055 7754 ft 291 kts 44°
2026-05-04 19:52 47.48854 19.57154 8429 ft 293 kts 45°
2026-05-04 19:52 47.50312 19.59288 9074 ft 296 kts 45°
2026-05-04 19:52 47.51776 19.61441 9715 ft 298 kts 45°
2026-05-04 19:52 47.53237 19.63598 10292 ft 302 kts 45°
2026-05-04 19:53 47.54885 19.65707 10447 ft 323 kts 32°
2026-05-04 19:53 47.57000 19.67050 10569 ft 343 kts 12°
2026-05-04 19:53 47.59429 19.67254 10761 ft 358 kts 351°
2026-05-04 19:53 47.61809 19.66140 11218 ft 363 kts 331°
2026-05-04 19:54 47.63799 19.63865 11759 ft 364 kts 313°
2026-05-04 19:54 47.65540 19.61116 12355 ft 367 kts 312°
2026-05-04 19:54 47.67277 19.58324 12952 ft 369 kts 311°
2026-05-04 19:54 47.68808 19.55263 13517 ft 371 kts 304°
2026-05-04 19:55 47.70268 19.52100 14075 ft 373 kts 304°
2026-05-04 19:55 47.71730 19.48901 14650 ft 375 kts 304°
2026-05-04 19:55 47.73198 19.45675 15194 ft 378 kts 304°
2026-05-04 19:55 47.74671 19.42433 15754 ft 380 kts 304°
2026-05-04 19:56 47.76152 19.39174 16289 ft 383 kts 304°
2026-05-04 19:56 47.77648 19.35882 16833 ft 385 kts 304°
2026-05-04 19:56 47.79151 19.32580 17347 ft 387 kts 304°
2026-05-04 19:56 47.80666 19.29250 17866 ft 389 kts 304°
2026-05-04 19:57 47.82185 19.25907 18368 ft 391 kts 304°
2026-05-04 19:57 47.83716 19.22532 18860 ft 394 kts 304°
2026-05-04 19:57 47.85252 19.19139 19331 ft 397 kts 304°
2026-05-04 19:57 47.86798 19.15720 19812 ft 399 kts 304°
2026-05-04 19:58 47.88353 19.12278 20285 ft 402 kts 304°
2026-05-04 19:58 47.89914 19.08816 20717 ft 405 kts 304°
2026-05-04 19:58 47.91483 19.05328 21136 ft 407 kts 304°
2026-05-04 19:58 47.92533 19.02987 21414 ft 409 kts 304°
2026-05-04 19:59 47.94112 18.99462 21823 ft 411 kts 304°
2026-05-04 19:59 47.95707 18.95902 22186 ft 414 kts 304°
2026-05-04 19:59 47.97312 18.92326 22566 ft 416 kts 304°
2026-05-04 19:59 47.98922 18.88729 22946 ft 418 kts 304°
2026-05-04 20:00 48.00543 18.85105 23325 ft 420 kts 304°
2026-05-04 20:00 48.02232 18.81532 23678 ft 422 kts 309°
2026-05-04 20:00 48.04890 18.77265 24143 ft 425 kts 313°
2026-05-04 20:00 48.06275 18.75111 24373 ft 426 kts 313°
2026-05-04 20:01 48.08327 18.71905 24708 ft 428 kts 313°
2026-05-04 20:01 48.10388 18.68677 25055 ft 429 kts 313°
2026-05-04 20:01 48.12448 18.65438 25395 ft 431 kts 313°
2026-05-04 20:01 48.14520 18.62180 25728 ft 432 kts 313°
2026-05-04 20:02 48.16595 18.58919 26046 ft 434 kts 313°
2026-05-04 20:02 48.18679 18.55646 26366 ft 435 kts 313°
2026-05-04 20:02 48.20772 18.52355 26673 ft 437 kts 313°
2026-05-04 20:02 48.22869 18.49050 26977 ft 438 kts 313°
2026-05-04 20:03 48.24969 18.45731 27254 ft 439 kts 313°
2026-05-04 20:03 48.27075 18.42398 27542 ft 441 kts 313°
2026-05-04 20:03 48.29186 18.39056 27821 ft 442 kts 313°
2026-05-04 20:03 48.31305 18.35698 28107 ft 443 kts 313°
2026-05-04 20:04 48.33431 18.32325 28388 ft 445 kts 313°
2026-05-04 20:04 48.35562 18.28936 28663 ft 446 kts 313°
2026-05-04 20:04 48.37692 18.25540 28944 ft 447 kts 313°
2026-05-04 20:04 48.39832 18.22121 29199 ft 449 kts 313°
2026-05-04 20:05 48.41967 18.18710 29555 ft 447 kts 313°
2026-05-04 20:05 48.44092 18.15317 29928 ft 446 kts 313°
2026-05-04 20:05 48.46222 18.11920 30298 ft 444 kts 313°
2026-05-04 20:05 48.48334 18.08543 30641 ft 443 kts 313°
2026-05-04 20:06 48.50445 18.05159 30972 ft 442 kts 313°
2026-05-04 20:06 48.52542 18.01786 31284 ft 441 kts 313°
2026-05-04 20:06 48.54636 17.98413 31599 ft 440 kts 313°
2026-05-04 20:06 48.56726 17.95048 31906 ft 439 kts 313°
2026-05-04 20:07 48.58813 17.91686 32220 ft 438 kts 313°
2026-05-04 20:07 48.60892 17.88331 32519 ft 437 kts 313°
2026-05-04 20:07 48.62964 17.84977 32809 ft 436 kts 313°
2026-05-04 20:07 48.65031 17.81625 33089 ft 436 kts 313°
2026-05-04 20:08 48.67067 17.78322 33379 ft 434 kts 313°
2026-05-04 20:08 48.69150 17.74945 33665 ft 433 kts 313°
2026-05-04 20:08 48.71206 17.71613 33923 ft 432 kts 313°
2026-05-04 20:09 48.75264 17.64942 33995 ft 429 kts 308°
2026-05-04 20:09 48.76801 17.61157 34002 ft 429 kts 295°
2026-05-04 20:09 48.78053 17.57047 33998 ft 429 kts 295°
2026-05-04 20:10 48.80525 17.48811 33999 ft 429 kts 295°
2026-05-04 20:10 48.82986 17.40557 33998 ft 429 kts 295°
2026-05-04 20:11 48.85431 17.32318 33999 ft 428 kts 295°
2026-05-04 20:11 48.87879 17.24068 34002 ft 428 kts 295°
2026-05-04 20:12 48.90319 17.15817 34001 ft 428 kts 294°
2026-05-04 20:12 48.92751 17.07555 34002 ft 428 kts 294°
2026-05-04 20:13 48.95187 16.99282 34001 ft 428 kts 294°
2026-05-04 20:13 48.97616 16.90999 34001 ft 429 kts 294°
2026-05-04 20:14 49.00041 16.82711 34002 ft 429 kts 294°
2026-05-04 20:14 49.02460 16.74405 34001 ft 429 kts 294°
2026-05-04 20:15 49.04864 16.66101 34000 ft 429 kts 294°
2026-05-04 20:15 49.07262 16.57775 33995 ft 429 kts 294°
2026-05-04 20:16 49.09660 16.49447 34002 ft 429 kts 294°
2026-05-04 20:16 49.12052 16.41102 34006 ft 429 kts 294°
2026-05-04 20:17 49.14435 16.32768 33999 ft 428 kts 294°
2026-05-04 20:17 49.16795 16.24493 33994 ft 427 kts 293°
2026-05-04 20:18 49.19166 16.16171 33995 ft 427 kts 293°
2026-05-04 20:18 49.21529 16.07836 33994 ft 427 kts 293°
2026-05-04 20:19 49.23874 15.99506 33992 ft 426 kts 293°
2026-05-04 20:19 49.26210 15.91174 33988 ft 426 kts 292°
2026-05-04 20:20 49.28535 15.82845 33984 ft 425 kts 292°
2026-05-04 20:20 49.30862 15.74512 33983 ft 425 kts 292°
2026-05-04 20:21 49.33186 15.66170 33980 ft 426 kts 292°
2026-05-04 20:21 49.36654 15.53625 33973 ft 426 kts 292°
2026-05-04 20:22 49.38961 15.45254 33969 ft 426 kts 292°
2026-05-04 20:22 49.41248 15.36914 33970 ft 427 kts 292°
2026-05-04 20:23 49.43567 15.28452 33969 ft 428 kts 292°
2026-05-04 20:23 49.45856 15.20075 33973 ft 428 kts 292°
2026-05-04 20:24 49.48149 15.11635 33970 ft 428 kts 291°
2026-05-04 20:24 49.50438 15.03179 33966 ft 429 kts 291°
2026-05-04 20:25 49.52726 14.94694 33957 ft 429 kts 291°
2026-05-04 20:25 49.55003 14.86193 33967 ft 430 kts 291°
2026-05-04 20:26 49.57265 14.77680 33960 ft 430 kts 291°
2026-05-04 20:26 49.59544 14.69139 33960 ft 431 kts 291°
2026-05-04 20:27 49.61823 14.60592 33961 ft 431 kts 291°
2026-05-04 20:27 49.64100 14.52028 33960 ft 432 kts 290°
2026-05-04 20:28 49.66363 14.43450 33966 ft 432 kts 290°
2026-05-04 20:28 49.68625 14.34838 33960 ft 432 kts 290°
2026-05-04 20:29 49.70865 14.26285 33967 ft 433 kts 290°
2026-05-04 20:29 49.73118 14.17647 33968 ft 433 kts 290°
2026-05-04 20:30 49.75365 14.08995 33976 ft 434 kts 290°
2026-05-04 20:30 49.77611 14.00328 33978 ft 434 kts 290°
2026-05-04 20:31 49.79845 13.91652 33976 ft 434 kts 290°
2026-05-04 20:31 49.82073 13.82978 33977 ft 434 kts 289°
2026-05-04 20:32 49.84298 13.74280 33977 ft 434 kts 289°
2026-05-04 20:32 49.86522 13.65583 33978 ft 434 kts 289°
2026-05-04 20:33 49.88728 13.56870 33976 ft 434 kts 289°
2026-05-04 20:33 49.90927 13.48163 33976 ft 434 kts 289°
2026-05-04 20:34 49.93126 13.39440 33978 ft 434 kts 289°
2026-05-04 20:34 49.95316 13.30716 33978 ft 433 kts 289°
2026-05-04 20:35 49.97492 13.21990 33977 ft 433 kts 289°
2026-05-04 20:35 49.99669 13.13251 33979 ft 433 kts 289°
2026-05-04 20:36 50.01847 13.04523 33992 ft 432 kts 289°
2026-05-04 20:36 50.04001 12.95822 33998 ft 431 kts 288°
2026-05-04 20:37 50.06137 12.87132 33995 ft 429 kts 288°
2026-05-04 20:37 50.08246 12.78505 33995 ft 429 kts 288°
2026-05-04 20:38 50.10363 12.69833 33996 ft 428 kts 288°
2026-05-04 20:38 50.12476 12.61159 33997 ft 428 kts 288°
2026-05-04 20:39 50.14582 12.52481 33997 ft 428 kts 288°
2026-05-04 20:39 50.16674 12.43801 33995 ft 428 kts 288°
2026-05-04 20:40 50.18761 12.35102 33998 ft 428 kts 288°
2026-05-04 20:40 50.20723 12.26356 33996 ft 427 kts 285°
2026-05-04 20:41 50.22527 12.17528 34001 ft 427 kts 285°
2026-05-04 20:41 50.24325 12.08688 34008 ft 427 kts 285°
2026-05-04 20:42 50.26147 11.99856 34010 ft 427 kts 285°
2026-05-04 20:42 50.27980 11.91028 34010 ft 427 kts 285°
2026-05-04 20:43 50.29807 11.82196 34012 ft 427 kts 285°
2026-05-04 20:43 50.31621 11.73363 34015 ft 427 kts 285°
2026-05-04 20:44 50.33402 11.64579 34018 ft 426 kts 285°
2026-05-04 20:44 50.35204 11.55679 34020 ft 426 kts 284°
2026-05-04 20:45 50.36981 11.46898 34017 ft 425 kts 285°
2026-05-04 20:45 50.38761 11.38065 34021 ft 425 kts 284°
2026-05-04 20:46 50.40527 11.29230 34022 ft 425 kts 284°
2026-05-04 20:46 50.42287 11.20403 34019 ft 424 kts 284°
2026-05-04 20:47 50.44045 11.11593 34016 ft 423 kts 284°
2026-05-04 20:47 50.45791 11.02771 34017 ft 423 kts 284°
2026-05-04 20:48 50.47523 10.93958 34014 ft 422 kts 284°
2026-05-04 20:48 50.48957 10.86631 34016 ft 422 kts 284°
2026-05-04 20:49 50.50671 10.77837 34015 ft 422 kts 284°
2026-05-04 20:49 50.52383 10.69019 34013 ft 421 kts 284°
2026-05-04 20:50 50.54079 10.60204 34009 ft 421 kts 283°
2026-05-04 20:50 50.55767 10.51409 34009 ft 420 kts 283°
2026-05-04 20:51 50.57453 10.42600 34006 ft 420 kts 283°
2026-05-04 20:51 50.59135 10.33788 34005 ft 421 kts 283°
2026-05-04 20:52 50.60811 10.24971 34009 ft 421 kts 283°
2026-05-04 20:52 50.62483 10.16132 34008 ft 421 kts 283°
2026-05-04 20:53 50.64132 10.07361 34007 ft 420 kts 283°
2026-05-04 20:53 50.65784 9.98526 34008 ft 421 kts 283°
2026-05-04 20:54 50.67427 9.89682 34009 ft 420 kts 283°
2026-05-04 20:54 50.69066 9.80823 34014 ft 420 kts 283°
2026-05-04 20:55 50.70694 9.71972 34014 ft 420 kts 282°
2026-05-04 20:55 50.72319 9.63111 34017 ft 420 kts 282°
2026-05-04 20:56 50.73788 9.54206 34021 ft 418 kts 278°
2026-05-04 20:56 50.74900 9.45224 34019 ft 417 kts 277°
2026-05-04 20:57 50.75946 9.36219 34022 ft 417 kts 277°
2026-05-04 20:57 50.77049 9.27228 34019 ft 417 kts 277°
2026-05-04 20:58 50.78186 9.18259 34021 ft 416 kts 277°
2026-05-04 20:58 50.79308 9.09346 34021 ft 416 kts 277°
2026-05-04 20:59 50.80420 9.00371 34014 ft 416 kts 277°
2026-05-04 20:59 50.81520 8.91399 34023 ft 415 kts 277°
2026-05-04 21:00 50.82617 8.82439 34018 ft 415 kts 277°
2026-05-04 21:00 50.83702 8.73469 34012 ft 415 kts 277°
2026-05-04 21:01 50.84784 8.64516 34015 ft 414 kts 276°
2026-05-04 21:01 50.85851 8.55544 34014 ft 414 kts 276°
2026-05-04 21:02 50.86904 8.46587 34019 ft 414 kts 276°
2026-05-04 21:02 50.87964 8.37620 34012 ft 414 kts 276°
2026-05-04 21:03 50.89022 8.28658 34012 ft 414 kts 276°
2026-05-04 21:03 50.90067 8.19702 34018 ft 414 kts 276°
2026-05-04 21:04 50.91102 8.10728 34007 ft 414 kts 276°
2026-05-04 21:04 50.92113 8.01815 34011 ft 414 kts 276°
2026-05-04 21:05 50.93638 7.92991 34013 ft 419 kts 284°
2026-05-04 21:05 50.95553 7.84281 34008 ft 419 kts 283°
2026-05-04 21:06 50.97458 7.75535 34014 ft 419 kts 283°
2026-05-04 21:06 50.99344 7.66790 34013 ft 418 kts 283°
2026-05-04 21:07 51.01226 7.58049 34007 ft 418 kts 283°
2026-05-04 21:07 51.03103 7.49306 34010 ft 418 kts 283°
2026-05-04 21:08 51.04974 7.40546 34015 ft 419 kts 283°
2026-05-04 21:08 51.06843 7.31792 34010 ft 419 kts 283°
2026-05-04 21:09 51.08709 7.23014 34011 ft 419 kts 283°
2026-05-04 21:09 51.10561 7.14228 34011 ft 419 kts 283°
2026-05-04 21:10 51.12406 7.05418 33984 ft 420 kts 282°
2026-05-04 21:10 51.14255 6.96570 33979 ft 422 kts 283°
2026-05-04 21:11 51.16118 6.87618 33979 ft 423 kts 282°
2026-05-04 21:11 51.17953 6.78778 33983 ft 424 kts 282°
2026-05-04 21:12 51.19793 6.69847 33988 ft 424 kts 282°
2026-05-04 21:12 51.21629 6.60912 33990 ft 424 kts 282°
2026-05-04 21:13 51.23456 6.51969 33991 ft 424 kts 282°
2026-05-04 21:13 51.25279 6.43014 33993 ft 424 kts 282°
2026-05-04 21:14 51.27091 6.34063 33992 ft 424 kts 282°
2026-05-04 21:14 51.28897 6.25122 33990 ft 422 kts 282°
2026-05-04 21:15 51.30691 6.16186 33992 ft 423 kts 281°
2026-05-04 21:15 51.32478 6.07238 33991 ft 422 kts 281°
2026-05-04 21:16 51.34254 5.98289 33992 ft 422 kts 281°
2026-05-04 21:16 51.36031 5.89337 33985 ft 423 kts 281°
2026-05-04 21:17 51.37800 5.80366 33984 ft 423 kts 281°
2026-05-04 21:17 51.39555 5.71395 33981 ft 422 kts 281°
2026-05-04 21:18 51.41307 5.62412 33981 ft 423 kts 281°
2026-05-04 21:18 51.43064 5.53412 33980 ft 423 kts 281°
2026-05-04 21:19 51.44811 5.44401 33978 ft 423 kts 281°
2026-05-04 21:19 51.46547 5.35373 33979 ft 424 kts 281°
2026-05-04 21:20 51.48283 5.26337 33979 ft 424 kts 281°
2026-05-04 21:20 51.50013 5.17261 33977 ft 425 kts 281°
2026-05-04 21:21 51.51737 5.08188 33978 ft 426 kts 281°
2026-05-04 21:21 51.53454 4.99086 33978 ft 426 kts 281°
2026-05-04 21:22 51.55156 4.89963 33978 ft 427 kts 281°
2026-05-04 21:22 51.56542 4.80754 33977 ft 423 kts 275°
2026-05-04 21:23 51.57563 4.71502 33978 ft 423 kts 275°
2026-05-04 21:23 51.58571 4.62198 33979 ft 424 kts 275°
2026-05-04 21:24 51.59569 4.52831 33978 ft 424 kts 275°
2026-05-04 21:24 51.60565 4.43467 33980 ft 425 kts 275°
2026-05-04 21:25 51.61562 4.34084 33985 ft 426 kts 276°
2026-05-04 21:25 51.62551 4.24686 33988 ft 427 kts 275°
2026-05-04 21:26 51.63528 4.15268 33995 ft 427 kts 275°
2026-05-04 21:26 51.64505 4.05847 34000 ft 427 kts 276°
2026-05-04 21:27 51.65475 3.96429 34006 ft 427 kts 276°
2026-05-04 21:27 51.66434 3.86978 34010 ft 427 kts 275°
2026-05-04 21:28 51.67383 3.77529 34015 ft 428 kts 275°
2026-05-04 21:28 51.68327 3.68074 34025 ft 427 kts 275°
2026-05-04 21:29 51.69262 3.58606 34021 ft 428 kts 275°
2026-05-04 21:29 51.70203 3.49133 34038 ft 428 kts 275°
2026-05-04 21:30 51.71130 3.39658 34044 ft 428 kts 275°
2026-05-04 21:30 51.72044 3.30163 34046 ft 428 kts 275°
2026-05-04 21:31 51.73071 3.15879 34048 ft 425 kts 264°
2026-05-04 21:32 51.72357 3.06451 33967 ft 424 kts 259°
2026-05-04 21:32 51.71949 3.01758 33007 ft 434 kts 259°
2026-05-04 21:32 51.71527 2.96910 32385 ft 425 kts 259°
2026-05-04 21:32 51.71128 2.92299 31456 ft 416 kts 259°
2026-05-04 21:33 51.70731 2.87722 30464 ft 409 kts 259°
2026-05-04 21:33 51.70336 2.83215 29447 ft 403 kts 259°
2026-05-04 21:33 51.69944 2.78782 28419 ft 397 kts 259°
2026-05-04 21:33 51.69552 2.74403 27384 ft 392 kts 260°
2026-05-04 21:34 51.69163 2.70070 26342 ft 388 kts 260°
2026-05-04 21:34 51.68780 2.65789 25324 ft 384 kts 261°
2026-05-04 21:34 51.68400 2.61554 24310 ft 380 kts 261°
2026-05-04 21:34 51.68020 2.57362 23350 ft 376 kts 262°
2026-05-04 21:35 51.67644 2.53222 22383 ft 372 kts 262°
2026-05-04 21:35 51.67273 2.49122 21422 ft 367 kts 261°
2026-05-04 21:35 51.66911 2.45080 20460 ft 362 kts 261°
2026-05-04 21:35 51.66551 2.41087 19496 ft 358 kts 261°
2026-05-04 21:36 51.66196 2.37152 18536 ft 353 kts 261°
2026-05-04 21:36 51.65840 2.33262 17588 ft 349 kts 261°
2026-05-04 21:36 51.65484 2.29420 16655 ft 344 kts 261°
2026-05-04 21:36 51.65132 2.25637 16218 ft 343 kts 261°
2026-05-04 21:37 51.64891 2.23065 16107 ft 344 kts 261°
2026-05-04 21:37 51.64535 2.19303 16013 ft 344 kts 261°
2026-05-04 21:37 51.64173 2.15485 16033 ft 345 kts 261°
2026-05-04 21:37 51.63810 2.11661 16035 ft 346 kts 261°
2026-05-04 21:38 51.63450 2.07838 16035 ft 345 kts 261°
2026-05-04 21:38 51.63094 2.04011 16036 ft 346 kts 261°
2026-05-04 21:38 51.62740 2.00187 16035 ft 346 kts 261°
2026-05-04 21:38 51.62388 1.96358 15801 ft 345 kts 261°
2026-05-04 21:39 51.62040 1.92558 15740 ft 342 kts 261°
2026-05-04 21:39 51.61677 1.88791 15956 ft 340 kts 258°
2026-05-04 21:39 51.61011 1.85133 16032 ft 342 kts 248°
2026-05-04 21:39 51.59936 1.81703 16033 ft 344 kts 237°
2026-05-04 21:40 51.58500 1.78627 16033 ft 345 kts 228°
2026-05-04 21:40 51.56904 1.75750 16049 ft 345 kts 228°
2026-05-04 21:40 51.55311 1.72861 16046 ft 345 kts 228°
2026-05-04 21:40 51.53723 1.69973 16033 ft 345 kts 228°
2026-05-04 21:41 51.52135 1.67084 16034 ft 345 kts 228°
2026-05-04 21:41 51.50547 1.64194 16035 ft 345 kts 229°
2026-05-04 21:41 51.49111 1.61115 16032 ft 345 kts 239°
2026-05-04 21:41 51.48072 1.57633 16043 ft 347 kts 249°
2026-05-04 21:42 51.47247 1.54000 15953 ft 347 kts 249°
2026-05-04 21:42 51.46420 1.50392 15592 ft 342 kts 249°
2026-05-04 21:42 51.45600 1.46830 15164 ft 339 kts 249°
2026-05-04 21:42 51.44785 1.43305 14734 ft 336 kts 249°
2026-05-04 21:43 51.43863 1.39892 14308 ft 333 kts 240°
2026-05-04 21:43 51.42531 1.36896 14048 ft 332 kts 228°
2026-05-04 21:43 51.40818 1.34376 14043 ft 336 kts 217°
2026-05-04 21:43 51.38933 1.32134 14044 ft 338 kts 216°
2026-05-04 21:44 51.37041 1.29893 13799 ft 340 kts 216°
2026-05-04 21:44 51.35124 1.27627 12990 ft 342 kts 216°
2026-05-04 21:44 51.33246 1.25410 12731 ft 333 kts 216°
2026-05-04 21:44 51.31383 1.23210 12483 ft 333 kts 216°
2026-05-04 21:45 51.29525 1.21015 12231 ft 332 kts 216°
2026-05-04 21:45 51.27672 1.18832 11971 ft 330 kts 216°
2026-05-04 21:45 51.25826 1.16661 11714 ft 329 kts 216°
2026-05-04 21:45 51.23984 1.14491 11487 ft 329 kts 216°
2026-05-04 21:46 51.22171 1.12356 11232 ft 328 kts 216°
2026-05-04 21:46 51.20310 1.10169 10971 ft 328 kts 216°
2026-05-04 21:46 51.18475 1.08017 10728 ft 327 kts 216°
2026-05-04 21:46 51.16642 1.05873 10477 ft 326 kts 216°
2026-05-04 21:47 51.14819 1.03744 10228 ft 325 kts 216°
2026-05-04 21:47 51.13001 1.01622 9978 ft 320 kts 216°
2026-05-04 21:47 51.11279 0.99615 9843 ft 301 kts 216°
2026-05-04 21:47 51.09593 0.97649 9715 ft 294 kts 216°
2026-05-04 21:48 51.07967 0.95752 9587 ft 293 kts 216°
2026-05-04 21:48 51.06397 0.93630 9465 ft 292 kts 227°
2026-05-04 21:48 51.05178 0.91111 9344 ft 291 kts 239°
2026-05-04 21:48 51.04254 0.88201 9217 ft 291 kts 245°
2026-05-04 21:49 51.03405 0.85328 9089 ft 291 kts 245°
2026-05-04 21:49 51.02529 0.82383 8973 ft 291 kts 245°
2026-05-04 21:49 51.01661 0.79484 8831 ft 290 kts 245°
2026-05-04 21:49 51.00804 0.76637 8719 ft 290 kts 245°
2026-05-04 21:50 50.99933 0.73757 8594 ft 289 kts 245°
2026-05-04 21:50 50.99065 0.70877 8462 ft 288 kts 245°
2026-05-04 21:50 50.98205 0.68008 8346 ft 288 kts 245°
2026-05-04 21:50 50.97346 0.65142 8219 ft 287 kts 245°
2026-05-04 21:51 50.96489 0.62282 8091 ft 287 kts 245°
2026-05-04 21:51 50.95632 0.59438 7974 ft 286 kts 245°
2026-05-04 21:51 50.94770 0.56586 7838 ft 286 kts 245°
2026-05-04 21:51 50.93911 0.53750 7717 ft 285 kts 245°
2026-05-04 21:52 50.93052 0.50912 7592 ft 285 kts 245°
2026-05-04 21:52 50.92206 0.48078 7466 ft 285 kts 248°
2026-05-04 21:52 50.91695 0.45059 7341 ft 283 kts 264°
2026-05-04 21:52 50.91722 0.41959 7215 ft 281 kts 280°
2026-05-04 21:53 50.92204 0.38968 7090 ft 281 kts 287°
2026-05-04 21:53 50.92754 0.36006 7018 ft 279 kts 287°
2026-05-04 21:53 50.93296 0.33072 7022 ft 272 kts 287°
2026-05-04 21:53 50.93812 0.30271 7022 ft 257 kts 287°
2026-05-04 21:54 50.94299 0.27609 7027 ft 248 kts 287°
2026-05-04 21:54 50.94689 0.24792 7034 ft 274 kts 278°
2026-05-04 21:54 50.94906 0.21753 7027 ft 280 kts 276°
2026-05-04 21:54 50.95099 0.18675 7024 ft 281 kts 276°
2026-05-04 21:55 50.95288 0.15588 7020 ft 281 kts 276°
2026-05-04 21:55 50.95476 0.12507 7020 ft 281 kts 276°
2026-05-04 21:55 50.95663 0.09424 7018 ft 281 kts 276°
2026-05-04 21:55 50.95850 0.06338 7016 ft 281 kts 276°
2026-05-04 21:56 50.96037 0.03247 7017 ft 281 kts 276°
2026-05-04 21:56 50.96223 0.00164 7016 ft 281 kts 276°
2026-05-04 21:56 50.96408 -0.02923 7024 ft 281 kts 276°
2026-05-04 21:56 50.96589 -0.06010 7026 ft 281 kts 276°
2026-05-04 21:57 50.96770 -0.09100 7027 ft 281 kts 276°
2026-05-04 21:57 50.96948 -0.12149 7028 ft 282 kts 276°
2026-05-04 21:57 50.97130 -0.15279 6976 ft 280 kts 276°
2026-05-04 21:57 50.97308 -0.18347 6636 ft 279 kts 276°
2026-05-04 21:58 50.97484 -0.21401 6297 ft 277 kts 276°
2026-05-04 21:58 50.97655 -0.24438 5951 ft 276 kts 276°
2026-05-04 21:58 50.97823 -0.27470 5613 ft 275 kts 276°
2026-05-04 21:58 50.97991 -0.30476 5323 ft 271 kts 276°
2026-05-04 21:59 50.98151 -0.33412 5007 ft 266 kts 276°
2026-05-04 21:59 50.98564 -0.36193 4497 ft 254 kts 301°
2026-05-04 21:59 50.99682 -0.38216 4021 ft 238 kts 326°
2026-05-04 21:59 51.01033 -0.39632 3531 ft 229 kts 330°
2026-05-04 22:00 51.02372 -0.40932 3065 ft 221 kts 331°
2026-05-04 22:00 51.03640 -0.42165 2738 ft 206 kts 331°
2026-05-04 22:00 51.04817 -0.43306 2373 ft 195 kts 331°
2026-05-04 22:00 51.05962 -0.44411 2062 ft 187 kts 331°
2026-05-04 22:01 51.07082 -0.45433 1994 ft 184 kts 337°
2026-05-04 22:01 51.08326 -0.45726 2005 ft 181 kts
2026-05-04 22:01 51.09527 -0.45310 1997 ft 171 kts 22°
2026-05-04 22:01 51.10515 -0.44359 1999 ft 163 kts 40°
2026-05-04 22:02 51.11247 -0.43015 2002 ft 160 kts 58°
2026-05-04 22:02 51.11692 -0.41408 2005 ft 159 kts 74°
2026-05-04 22:02 51.11936 -0.39696 2005 ft 158 kts 77°
2026-05-04 22:02 51.12177 -0.37988 2007 ft 158 kts 77°
2026-05-04 22:03 51.12414 -0.36289 2004 ft 158 kts 77°
2026-05-04 22:03 51.12651 -0.34596 1896 ft 152 kts 77°
2026-05-04 22:03 51.12874 -0.32992 1738 ft 146 kts 77°
2026-05-04 22:03 51.13092 -0.31433 1565 ft 144 kts 77°
2026-05-04 22:04 51.13308 -0.29884 1381 ft 143 kts 78°
2026-05-04 22:04 51.13523 -0.28342 1197 ft 142 kts 77°
2026-05-04 22:04 51.13733 -0.26835 1010 ft 142 kts 78°
2026-05-04 22:04 51.13947 -0.25294 823 ft 142 kts 77°
2026-05-04 22:05 51.14157 -0.23779 638 ft 142 kts 78°
2026-05-04 22:05 51.14373 -0.22246 430 ft 142 kts 78°
2026-05-04 22:05 51.14586 -0.20714 250 ft 142 kts 78°
2026-05-04 22:05 51.14778 -0.19255 207 ft 117 kts 77°
2026-05-04 22:06 51.14921 -0.18278 204 ft 70 kts 78°
2026-05-04 22:06 51.14996 -0.17714 207 ft 37 kts 77°
2026-05-04 22:06 51.15057 -0.17372 212 ft 29 kts 65°
2026-05-04 22:06 51.15130 -0.17217 207 ft 10 kts 29°
2026-05-04 22:07 51.15189 -0.17251 213 ft 12 kts 326°
2026-05-04 22:07 51.15231 -0.17299 206 ft 0 kts 324°
2026-05-04 22:07 51.15244 -0.17314 213 ft 5 kts 325°
2026-05-04 22:07 51.15260 -0.17331 204 ft 2 kts 327°
2026-05-04 22:08 51.15294 -0.17353 208 ft 8 kts 350°
2026-05-04 22:08 51.15355 -0.17371 209 ft 10 kts 348°
2026-05-04 22:08 51.15422 -0.17394 211 ft 12 kts 347°
2026-05-04 22:08 51.15468 -0.17411 207 ft 1 kts 347°
2026-05-04 22:09 51.15487 -0.17418 204 ft 0 kts 347°
2026-05-04 22:09 51.15507 -0.17425 209 ft 6 kts 348°
2026-05-04 22:09 51.15548 -0.17437 213 ft 4 kts 355°
2026-05-04 22:09 51.15583 -0.17405 205 ft 8 kts 54°
2026-05-04 22:10 51.15564 -0.17325 210 ft 6 kts 150°
2026-05-04 22:10 51.15556 -0.17319 204 ft 1 kts 158°
2026-05-04 22:10 51.15555 -0.17319 212 ft 1 kts 158°
2026-05-04 22:10 51.15526 -0.17305 211 ft 7 kts 165°
2026-05-04 22:11 51.15470 -0.17285 204 ft 6 kts 168°
2026-05-04 22:11 51.15447 -0.17278 215 ft 0 kts 169°
2026-05-04 22:11 51.15430 -0.17273 207 ft 5 kts 168°
2026-05-04 22:12 51.15391 -0.17227 213 ft 8 kts 116°
2026-05-04 22:12 51.15399 -0.17148 204 ft 5 kts 65°
2026-05-04 22:12 51.15405 -0.17129 204 ft 3 kts 67°
2026-05-04 22:13 51.15413 -0.17084 214 ft 8 kts 77°
2026-05-04 22:13 51.15423 -0.17026 207 ft 5 kts 56°
2026-05-04 22:13 51.15442 -0.17017 206 ft 2 kts 10°
2026-05-04 22:13 51.15464 -0.17022 212 ft 3 kts 348°
2026-05-04 22:14 51.15472 -0.17024 204 ft 0 kts 348°
2026-05-04 22:14 51.15477 -0.17026 204 ft 0 kts 348°
2026-05-04 22:14 51.15479 -0.17027 214 ft 0 kts 348°
2026-05-04 22:14 51.15480 -0.17027 210 ft 0 kts 348°